| time (UTC) | temp F | wind direction | speed MPH | gust MPH | rain 1hr in | rain 24hr in | rain mn in | humidity % | barometer mb |
| 20260508090327 | 42 | 225 | 8.0 | 9.0 | 0.00 | 0.00 | 0.00 | 69 | 1008.3 |
| 20260508084428 | 41 | 270 | 1.0 | 3.0 | 0.00 | 0.00 | 0.00 | 68 | 1008.2 |
| 20260508083428 | 41 | 270 | 4.0 | 7.0 | 0.00 | 0.00 | 0.00 | 69 | 1008.2 |
| 20260508082527 | 41 | 255 | 5.0 | 10.0 | 0.00 | 0.00 | 0.00 | 71 | 1008.3 |
| 20260508080527 | 42 | 270 | 1.0 | 4.0 | 0.00 | 0.00 | 0.00 | 67 | 1008.4 |
| 20260508075529 | 44 | 257 | 2.0 | 4.0 | 0.00 | 0.00 | 0.00 | 64 | 1008.3 |
| 20260508074528 | 44 | 225 | 8.0 | 9.0 | 0.00 | 0.00 | 0.00 | 64 | 1008.1 |
| 20260508072530 | 43 | 270 | 3.0 | 5.0 | 0.00 | 0.00 | 0.00 | 67 | 1008.0 |
| 20260508071530 | 43 | 225 | 7.0 | 8.0 | 0.00 | 0.00 | 0.00 | 65 | 1008.0 |
| 20260508070529 | 44 | 225 | 9.0 | 9.0 | 0.00 | 0.01 | 0.00 | 63 | 1008.1 |
| 20260508065527 | 44 | 225 | 10.0 | 11.0 | 0.00 | 0.01 | 0.00 | 61 | 1008.0 |
| 20260508064529 | 45 | 225 | 10.0 | 11.0 | 0.00 | 0.01 | 0.00 | 60 | 1008.0 |
| 20260508063628 | 45 | 225 | 9.0 | 11.0 | 0.00 | 0.01 | 0.00 | 61 | 1008.2 |
| 20260508062627 | 45 | 225 | 7.0 | 8.0 | 0.00 | 0.01 | 0.00 | 62 | 1008.3 |
| 20260508061627 | 45 | 225 | 8.0 | 9.0 | 0.00 | 0.01 | 0.00 | 62 | 1008.2 |
| 20260508060627 | 44 | 225 | 9.0 | 11.0 | 0.00 | 0.02 | 0.00 | 65 | 1008.2 |
| 20260508055628 | 43 | 270 | 1.0 | 2.0 | 0.00 | 0.10 | 0.00 | 66 | 1008.5 |
| 20260508054726 | 43 | 270 | 2.0 | 3.0 | 0.00 | 0.24 | 0.00 | 67 | 1008.6 |
| 20260508053730 | 45 | 270 | 0.0 | 1.0 | 0.00 | 0.27 | 0.00 | 65 | 1008.7 |
| 20260508052728 | 46 | 225 | 8.0 | 9.0 | 0.00 | 0.27 | 0.00 | 60 | 1008.5 |
| 20260508044027 | 46 | 277 | 2.0 | 3.0 | 0.00 | 0.27 | 0.00 | 60 | 1008.9 |
| 20260508043028 | 46 | 225 | 6.0 | 9.0 | 0.00 | 0.27 | 0.00 | 60 | 1009.0 |
| 20260508042127 | 45 | 239 | 5.0 | 7.0 | 0.00 | 0.27 | 0.00 | 62 | 1008.8 |
| 20260508041129 | 45 | 225 | 4.0 | 5.0 | 0.00 | 0.27 | 0.00 | 62 | 1009.0 |
| 20260508040128 | 46 | 254 | 3.0 | 6.0 | 0.00 | 0.27 | 0.00 | 63 | 1009.0 |
| 20260508035123 | 47 | 233 | 4.0 | 6.0 | 0.00 | 0.27 | 0.27 | 58 | 1009.1 |
| 20260508034222 | 48 | 225 | 7.0 | 9.0 | 0.00 | 0.27 | 0.27 | 54 | 1009.1 |
| 20260508033226 | 48 | 225 | 7.0 | 9.0 | 0.00 | 0.27 | 0.27 | 54 | 1009.3 |
| 20260508032223 | 48 | 267 | 5.0 | 7.0 | 0.00 | 0.27 | 0.27 | 53 | 1009.1 |
| 20260508031222 | 48 | 247 | 4.0 | 5.0 | 0.00 | 0.27 | 0.27 | 50 | 1009.1 |
| 20260508030223 | 48 | 270 | 5.0 | 7.0 | 0.00 | 0.28 | 0.27 | 52 | 1009.1 |
| 20260508025225 | 48 | 252 | 5.0 | 7.0 | 0.00 | 0.28 | 0.27 | 55 | 1008.9 |
| 20260508024225 | 49 | 269 | 3.0 | 4.0 | 0.00 | 0.30 | 0.27 | 56 | 1008.9 |
| 20260508021324 | 50 | 263 | 8.0 | 11.0 | 0.00 | 0.38 | 0.27 | 47 | 1008.8 |
| 20260508020322 | 50 | 266 | 7.0 | 9.0 | 0.00 | 0.41 | 0.27 | 46 | 1009.0 |
| 20260508015324 | 51 | 251 | 11.0 | 14.0 | 0.00 | 0.48 | 0.27 | 48 | 1009.1 |
| 20260508013324 | 51 | 258 | 10.0 | 16.0 | 0.00 | 0.54 | 0.27 | 48 | 1009.0 |
| 20260508012422 | 51 | 249 | 15.0 | 19.0 | 0.00 | 0.57 | 0.27 | 48 | 1008.8 |
| 20260508011425 | 52 | 249 | 11.0 | 14.0 | 0.00 | 0.59 | 0.27 | 48 | 1008.8 |
| 20260508005523 | 53 | 255 | 14.0 | 16.0 | 0.00 | 0.64 | 0.27 | 50 | 1008.5 |
| 20260508004622 | 52 | 260 | 14.0 | 18.0 | 0.00 | 0.64 | 0.27 | 56 | 1008.5 |
| 20260508003624 | 52 | 270 | 6.0 | 9.0 | 0.00 | 0.67 | 0.27 | 62 | 1008.3 |
| 20260508002623 | 50 | 247 | 4.0 | 7.0 | 0.00 | 0.72 | 0.27 | 77 | 1008.0 |
| 20260508001623 | 50 | 225 | 6.0 | 7.0 | 0.00 | 0.76 | 0.27 | 77 | 1007.9 |
| 20260508000624 | 50 | 198 | 3.0 | 4.0 | 0.00 | 0.81 | 0.27 | 76 | 1007.7 |
| 20260507235623 | 50 | 180 | 3.0 | 3.0 | 0.00 | 0.88 | 0.27 | 76 | 1007.6 |
| 20260507234624 | 50 | 180 | 1.0 | 2.0 | 0.00 | 0.89 | 0.27 | 77 | 1007.4 |
| 20260507233624 | 50 | 90 | 3.0 | 3.0 | 0.00 | 0.90 | 0.27 | 76 | 1007.1 |
| 20260507232625 | 50 | 90 | 5.0 | 6.0 | 0.00 | 0.91 | 0.27 | 76 | 1007.0 |
| 20260507231624 | 50 | 90 | 6.0 | 7.0 | 0.00 | 0.91 | 0.27 | 75 | 1006.9 |
| 20260507230623 | 50 | 90 | 9.0 | 10.0 | 0.00 | 0.91 | 0.27 | 75 | 1006.8 |
| 20260507225622 | 50 | 90 | 7.0 | 8.0 | 0.00 | 0.92 | 0.27 | 74 | 1006.7 |
| 20260507224623 | 49 | 67 | 8.0 | 9.0 | 0.00 | 0.92 | 0.27 | 76 | 1006.4 |
| 20260507223624 | 50 | 67 | 8.0 | 9.0 | 0.00 | 0.93 | 0.27 | 76 | 1006.3 |
| 20260507222625 | 50 | 90 | 5.0 | 5.0 | 0.00 | 0.94 | 0.27 | 75 | 1006.4 |
| 20260507221624 | 50 | 90 | 7.0 | 8.0 | 0.00 | 0.95 | 0.27 | 75 | 1006.2 |
| 20260507220626 | 50 | 90 | 7.0 | 8.0 | 0.00 | 0.96 | 0.27 | 74 | 1006.5 |
| 20260507215623 | 51 | 90 | 7.0 | 9.0 | 0.00 | 0.97 | 0.27 | 74 | 1006.6 |
| 20260507214623 | 51 | 90 | 8.0 | 9.0 | 0.00 | 0.98 | 0.27 | 73 | 1006.6 |
| 20260507213623 | 52 | 90 | 9.0 | 12.0 | 0.00 | 0.98 | 0.27 | 72 | 1006.6 |
| 20260507212624 | 52 | 128 | 9.0 | 10.0 | 0.00 | 0.98 | 0.27 | 70 | 1006.7 |
| 20260507211622 | 52 | 135 | 8.0 | 10.0 | 0.00 | 0.98 | 0.27 | 70 | 1006.8 |
| 20260507210623 | 52 | 112 | 12.0 | 13.0 | 0.00 | 0.98 | 0.27 | 69 | 1006.6 |
| 20260507204724 | 52 | 111 | 11.0 | 12.0 | 0.00 | 0.98 | 0.27 | 70 | 1006.5 |
| 20260507203822 | 53 | 116 | 9.0 | 11.0 | 0.00 | 0.98 | 0.27 | 69 | 1006.5 |
| 20260507202826 | 53 | 126 | 11.0 | 13.0 | 0.00 | 0.98 | 0.27 | 69 | 1006.4 |
| 20260507201823 | 53 | 113 | 13.0 | 15.0 | 0.00 | 0.98 | 0.27 | 66 | 1006.4 |
| 20260507200823 | 53 | 131 | 14.0 | 17.0 | 0.00 | 0.98 | 0.27 | 66 | 1006.4 |
| 20260507195822 | 52 | 125 | 16.0 | 19.0 | 0.00 | 0.98 | 0.27 | 67 | 1006.4 |
| 20260507194822 | 53 | 132 | 17.0 | 19.0 | 0.00 | 0.98 | 0.27 | 67 | 1006.6 |
| 20260507193823 | 53 | 131 | 16.0 | 19.0 | 0.00 | 0.98 | 0.27 | 65 | 1006.5 |
| 20260507191922 | 53 | 123 | 15.0 | 17.0 | 0.00 | 0.98 | 0.27 | 67 | 1006.5 |
| 20260507190923 | 53 | 135 | 15.0 | 18.0 | 0.00 | 0.98 | 0.27 | 69 | 1006.5 |
| 20260507185924 | 53 | 135 | 18.0 | 22.0 | 0.00 | 0.98 | 0.27 | 69 | 1006.5 |
| 20260507185022 | 54 | 131 | 16.0 | 18.0 | 0.00 | 0.98 | 0.27 | 69 | 1006.5 |
| 20260507184023 | 54 | 119 | 14.0 | 18.0 | 0.00 | 0.98 | 0.27 | 70 | 1006.6 |
| 20260507183122 | 54 | 126 | 14.0 | 16.0 | 0.00 | 0.98 | 0.27 | 71 | 1006.6 |
| 20260507182124 | 54 | 113 | 15.0 | 17.0 | 0.00 | 0.98 | 0.27 | 70 | 1006.8 |
| 20260507181122 | 54 | 115 | 15.0 | 16.0 | 0.00 | 0.98 | 0.27 | 71 | 1006.8 |
| 20260507180123 | 54 | 131 | 15.0 | 17.0 | 0.00 | 0.98 | 0.27 | 68 | 1006.6 |
| 20260507175123 | 54 | 135 | 12.0 | 17.0 | 0.00 | 0.98 | 0.27 | 69 | 1006.9 |
| 20260507174125 | 54 | 126 | 8.0 | 10.0 | 0.00 | 0.98 | 0.27 | 71 | 1006.9 |
| 20260507173125 | 54 | 135 | 10.0 | 12.0 | 0.00 | 0.98 | 0.27 | 70 | 1006.8 |
| 20260507172222 | 54 | 135 | 10.0 | 11.0 | 0.00 | 0.98 | 0.27 | 70 | 1006.9 |
| 20260507171222 | 53 | 135 | 10.0 | 11.0 | 0.00 | 0.98 | 0.27 | 71 | 1007.0 |
| 20260507170224 | 53 | 135 | 9.0 | 10.0 | 0.00 | 0.98 | 0.27 | 71 | 1007.0 |
| 20260507165225 | 53 | 135 | 10.0 | 11.0 | 0.00 | 0.98 | 0.27 | 70 | 1007.1 |
| 20260507164323 | 53 | 135 | 9.0 | 10.0 | 0.00 | 0.98 | 0.27 | 70 | 1007.2 |
| 20260507163323 | 53 | 135 | 8.0 | 9.0 | 0.00 | 0.98 | 0.27 | 70 | 1007.3 |
| 20260507161424 | 54 | 135 | 8.0 | 9.0 | 0.00 | 0.98 | 0.27 | 64 | 1007.5 |
| 20260507160522 | 54 | 135 | 4.0 | 5.0 | 0.00 | 0.98 | 0.27 | 60 | 1007.5 |
| 20260507155524 | 54 | 135 | 3.0 | 4.0 | 0.00 | 0.98 | 0.27 | 63 | 1007.6 |
| 20260507151725 | 52 | 135 | 6.0 | 7.0 | 0.00 | 0.98 | 0.27 | 69 | 1008.1 |
| 20260507145825 | 53 | 135 | 5.0 | 5.0 | 0.00 | 0.98 | 0.27 | 68 | 1008.1 |
| 20260507143825 | 52 | 180 | 4.0 | 4.0 | 0.00 | 0.98 | 0.27 | 69 | 1008.4 |
| 20260507142825 | 53 | 180 | 3.0 | 3.0 | 0.00 | 0.98 | 0.27 | 69 | 1008.5 |
| 20260507141824 | 53 | 180 | 2.0 | 3.0 | 0.00 | 0.98 | 0.27 | 70 | 1008.6 |
| 20260507140823 | 53 | 202 | 3.0 | 3.0 | 0.00 | 0.98 | 0.27 | 71 | 1008.6 |
| 20260507135824 | 51 | 225 | 3.0 | 3.0 | 0.00 | 0.98 | 0.27 | 71 | 1008.7 |
| 20260507134922 | 51 | 231 | 5.0 | 6.0 | 0.00 | 0.98 | 0.27 | 72 | 1008.6 |
| 20260507132023 | 50 | 246 | 5.0 | 6.0 | 0.00 | 0.98 | 0.27 | 76 | 1009.2 |
| 20260507131025 | 50 | 270 | 5.0 | 7.0 | 0.00 | 0.98 | 0.27 | 77 | 1008.7 |
| 20260507130124 | 49 | 238 | 5.0 | 7.0 | 0.00 | 0.98 | 0.27 | 77 | 1008.9 |
| 20260507125222 | 49 | 233 | 6.0 | 7.0 | 0.00 | 0.98 | 0.27 | 77 | 1008.9 |
| 20260507123223 | 48 | 248 | 7.0 | 9.0 | 0.00 | 0.98 | 0.27 | 80 | 1008.4 |
| 20260507122223 | 48 | 257 | 7.0 | 9.0 | 0.00 | 0.98 | 0.27 | 80 | 1008.4 |
| 20260507121222 | 48 | 247 | 6.0 | 7.0 | 0.00 | 0.98 | 0.27 | 79 | 1008.5 |
| 20260507120322 | 48 | 358 | 1.0 | 3.0 | 0.00 | 0.98 | 0.27 | 80 | 1008.0 |
| 20260507114323 | 47 | 247 | 7.0 | 9.0 | 0.00 | 0.98 | 0.27 | 81 | 1008.6 |
| 20260507113324 | 48 | 225 | 7.0 | 8.0 | 0.00 | 0.98 | 0.27 | 79 | 1009.4 |
| 20260507112324 | 48 | 225 | 5.0 | 6.0 | 0.00 | 0.98 | 0.27 | 81 | 1009.1 |
| 20260507111324 | 47 | 225 | 6.0 | 9.0 | 0.00 | 0.98 | 0.27 | 82 | 1009.5 |
| 20260507110323 | 47 | 237 | 10.0 | 11.0 | 0.00 | 0.98 | 0.27 | 82 | 1009.1 |
| 20260507105324 | 48 | 225 | 10.0 | 11.0 | 0.00 | 0.98 | 0.27 | 81 | 1009.0 |
| 20260507104423 | 47 | 225 | 8.0 | 9.0 | 0.00 | 0.98 | 0.27 | 83 | 1008.9 |
| 20260507102523 | 47 | 247 | 8.0 | 10.0 | 0.00 | 0.98 | 0.27 | 86 | 1008.5 |
| 20260507100523 | 48 | 270 | 6.0 | 8.0 | 0.00 | 0.98 | 0.27 | 87 | 1007.8 |
| 20260507091523 | 48 | 247 | 8.0 | 8.0 | 0.00 | 0.98 | 0.27 | 86 | 1008.0 |